Regional Weather Roundup
Issued by NWS

Home | Current Version | Previous Version | Graphics & Text | Print | Product List | Glossary On
Versions: 1 2 3 4 5 6 7 8 9 10 11 12 13 14 15 16 17 18 19 20 21 22 23 24 25 26 27 28 29 30 31 32 33 34 35 36 37 38 39 40 41 42 43 44 45 46 47 48 49 50
000
ASUS43 KBIS 251520
RWRND

NORTH DAKOTA REGIONAL WEATHER ROUNDUP
NATIONAL WEATHER SERVICE BISMARCK ND
900 AM CST THU DEC 25 2014

NOTE: "FAIR" INDICATES FEW OR NO CLOUDS BELOW 12,000 FEET WITH NO
SIGNIFICANT WEATHER AND/OR OBSTRUCTIONS TO VISIBILITY.


NDZ001>003-009>011-017-251600-
NORTHWEST NORTH DAKOTA

CITY           SKY/WX    TMP DP  RH WIND       PRES   REMARKS
WILLISTON      CLOUDY    25  19  78 N12       29.78R WCI  14
MINOT          CLOUDY    26  21  81 NW8       29.71R WCI  18
MINOT AFB      CLOUDY    26  25  98 NW10      29.70R WCI  15
$$

NDZ018>021-031>035-040>046-251600-
SOUTHWEST NORTH DAKOTA

CITY           SKY/WX    TMP DP  RH WIND       PRES   REMARKS
BISMARCK       CLOUDY    27  23  85 NW9       29.71R WCI  18
DICKINSON      CLOUDY    26  22  84 NW10      29.70R FOG     WCI  16
GARRISON         N/A     27  25  92 NW8       29.69R WCI  19
HETTINGER ARPT CLOUDY    25  21  85 N13       29.71R WCI  14
$$

NDZ004>008-012>016-024-026-027-054-251600-
NORTHEAST NORTH DAKOTA

CITY           SKY/WX    TMP DP  RH WIND       PRES   REMARKS
GRAND FORKS    CLOUDY    26  22  84 W9        29.67R WCI  17
GRND FRKS AFB  CLOUDY    26  25  99 NW10      29.67R WCI  15
DEVILS LAKE    CLOUDY    23  19  86 W8        29.67R WCI  14
$$

NDZ022-023-025-028>030-036>039-047>053-251600-
SOUTHEAST NORTH DAKOTA

CITY           SKY/WX    TMP DP  RH WIND       PRES   REMARKS
FARGO          CLOUDY    28  24  85 NW8       29.67R WCI  20
JAMESTOWN      MOCLDY    22  18  85 N10       29.66R WCI  11
$$



USA.gov is the U.S. government's official web portal to all federal, state and local government web resources and services.